This is the latest recevied weather packets stored in our database for station/object KC5DAQ-22. If no packets are shown the sender has not sent any weather packets the latest 10 day(s).
| Time | Temp. | Humidity | Pressure | Rain* | Wind** | Luminosity | Snow |
|---|---|---|---|---|---|---|---|
| 1777612601 | 20° C | 92% | 1010.7 hPa | 3.56 mm | - | 0 W/m² | - |
| 1777612541 | 20° C | 92% | 1010.6 hPa | 3.3 mm | - | 0 W/m² | - |
| 1777612480 | 20° C | 92% | 1010.6 hPa | 3.05 mm | - | 0 W/m² | - |
| 1777612421 | 20° C | 91% | 1010.6 hPa | 3.05 mm | - | 0 W/m² | - |
| 1777612361 | 20° C | 91% | 1010.7 hPa | 2.79 mm | - | 0 W/m² | - |
| 1777612302 | 20° C | 91% | 1010.7 hPa | 2.79 mm | - | 0 W/m² | - |
| 1777612241 | 20° C | 91% | 1010.8 hPa | 2.54 mm | - | 0 W/m² | - |
| 1777612181 | 20° C | 91% | 1010.8 hPa | 1.52 mm | - | 0 W/m² | - |
| 1777612122 | 20° C | 91% | 1010.9 hPa | 1.52 mm | - | 0 W/m² | - |
| 1777612061 | 20° C | 91% | 1010.9 hPa | 1.52 mm | - | 0 W/m² | - |
| 1777612002 | 20° C | 91% | 1010.9 hPa | 1.52 mm | - | 0 W/m² | - |
| 1777611940 | 20° C | 91% | 1011 hPa | 1.27 mm | - | 0 W/m² | - |
| 1777611881 | 20.56° C | 91% | 1010.9 hPa | 0.76 mm | - | 0 W/m² | - |
| 1777611811 | 20.56° C | 91% | 1010.8 hPa | 0.51 mm | - | 0 W/m² | - |
| 1777611751 | 20.56° C | 91% | 1010.6 hPa | 0.25 mm | - | 0 W/m² | - |
| 1777611692 | 20.56° C | 91% | 1010.6 hPa | 0 mm | - | 0 W/m² | - |
| 1777611632 | 20.56° C | 91% | 1010.5 hPa | 0 mm | - | 0 W/m² | - |
| 1777611573 | 20° C | 91% | 1010.4 hPa | 0 mm | - | 0 W/m² | - |
| 1777611513 | 20° C | 91% | 1010.4 hPa | 0 mm | - | 0 W/m² | - |
| 1777611452 | 20° C | 91% | 1010.5 hPa | 0 mm | - | 0 W/m² | - |
| 1777611392 | 20° C | 91% | 1010.7 hPa | 0 mm | - | 0 W/m² | - |
| 1777611332 | 20° C | 91% | 1010.8 hPa | 0 mm | - | 0 W/m² | - |
| 1777611272 | 20° C | 91% | 1010.7 hPa | 0 mm | - | 0 W/m² | - |
| 1777611214 | 20° C | 91% | 1010.5 hPa | 0 mm | - | 0 W/m² | - |
| 1777611153 | 20° C | 91% | 1010.4 hPa | 0 mm | - | 0 W/m² | - |
* Rain latest hour (hover to see other rain measurements)
** Current wind speed in m/s (hover to see current wind gust speed)